Location: Enborne
(51.3833°N, 1.3667°W)
Time: 12:31:29
(UTC+00:00)

CENTAUR R/B - Pass Details

Date: 18 September 2020
Orbit: 755 x 1433 km, 63.4° (Epoch: 02 October)

Event Time Altitude Azimuth Distance (km) Brightness Sun altitude
Rises 21:12:16 0° 315° (NW) 4,134 7.1 -26.5°
Reaches altitude 10° 21:14:59 10° 311° (NW) 3,250 6.2 -26.8°
Maximum altitude 21:22:42 52° 238° (WSW) 1,652 3.6 -27.7°
Enters shadow 21:25:43 38° 188° (S) 2,021 3.8 -28.0°
